STARLINK-3642, 51989

Orbit data source: Space-Track

STARLINK-3642, 51989 is a payload satellite owned by SpaceX/Seattle (US) in LEO that was launched on Wed, 09 Mar 2022 UTC via an FALCON 9 launch vehicle from the Air Force Eastern Test Range (AFETR). Payload-class satellites include a variety of spacecraft equipped with specific instruments for various scientific and technological missions. These include communications satellites like Starlink; space stations such as the ISS; scientific satellites like the Hubble; Earth observation satellites from companies like Planet Labs, Umbra, and HawkEye 360; GPS; miniature CubeSats for education and research; and military/defense satellites.

Loading next visibility...
Identifier
51989, 2022-025AK
Orbit
LEO
Country
Flag of USUS
Related business
Manufacturer
SpaceX/Seattle
Mission
Operational Commercial Communications
Bus & Motor
STARLINK, Unknown motor
Mass
297 kg wet, ~275 kg dry
Launch date (UTC)
2022-03-09 (4 years ago)
Launch vehicle
FALCON 9
Launch site
Air Force Eastern Test Range (AFETR)
Object type
Payload
Rocket body
Debris
Shape & HBR
Box + 1 Pan, 10.1 m
Radar Cross Section
13.562 m², Large (>1 m²)

Expand to show TLE details & history
Last TLE update: 2 days ago

TLE from 2 days ago
0 STARLINK-3642
1 51989U 22025AK  26171.41668980  .00033252  00000-0  15243-2 0  9994
2 51989  53.1612 297.5549 0001026 131.0773 201.1732 15.20185094  5785
Epoch: 2026-06-20T10:00Z
TLE epoch observation values (Epoch: 2026-06-20T10:00:01.998Z)
Latitude
-22.06951°
Longitude
-138.66661°
Altitude
512.184 km
Speed
7.607 km/s
True Right ascension
18h 39m 53s
True Declination
-21° 56' 45"
Sunlit
Object was in full shadow at epoch
Visualization orbit readout
Latitude
Unknown
Longitude
Unknown
Altitude
Unknown
Speed
Unknown
Apparent Right ascension
Unknown
Apparent Declination
Unknown
Sunlit
N/A
Visualization observer readout
Local Sidereal Time
21:52:38
Azimuth
Unknown
Elevation
Unknown
Doppler factor
Unknown
Orbital elements
Apogee altitude
506.243 km
Perigee altitude
504.831 km
Semi-major axis
6,883.674 km
Eccentricity
0.0001
Inclination
53.1612°
RAAN
297.5549°
Arg. of periapsis
131.0773°
True anomaly
201.16895°
Mean anomaly
201.1732°
Eccentric anomaly
201.17108°
Mean motion
3.80025 °/min
Orbital period
94.73 mins
BSTAR
0.0015243
Loading maneuver chart data...
Computing Atmospheric mass density...

Documentation

Showing up to 5 results
|